Temperature
14 14 14 14 13 13 13 13 13 12 11 11 11 11 11 11 11 11 11 10 10 10 10 10 10 10 10 10 10 10 10 10 10 9 9 9 9 9
14 14 13 13 13 13 13 13 13 13 12 11 11 11 11 11 11 11 10 10 10 10 10 10 10 10 10 10 10 10 10 10 9 9 9 9 9 9
14 13 13 13 13 13 13 12 12 12 12 12 11 11 11 10 10 10 10 10 10 10 10 10 10 10 10 10 9 9 9 9 9 9 9 9 9 8
13 13 13 13 13 13 13 12 12 12 12 12 11 11 10 10 10 10 10 10 10 10 10 9 9 9 9 9 9 9 9 9 9 9 9 8 8 8
13 13 13 13 13 13 12 12 12 12 12 11 11 11 10 10 10 10 10 10 10 9 9 9 9 9 9 9 9 9 9 9 9 8 8 8 8 8
13 13 13 13 13 12 12 12 12 11 11 11 11 11 10 10 10 10 10 10 9 9 9 9 9 9 9 9 9 8 8 8 8 8 8 8 8 8
13 13 13 12 12 12 12 12 12 11 11 11 11 10 10 10 10 10 10 9 9 9 9 9 9 9 9 8 8 8 8 8 8 8 8 8 8 7
13 13 12 12 12 12 12 12 11 11 11 11 11 10 10 10 10 10 10 9 9 9 9 9 9 9 8 8 8 8 8 8 8 8 8 7 7 7
12 12 12 12 12 12 12 12 11 11 11 11 11 11 10 10 10 10 10 9 9 9 9 9 8 8 8 8 8 8 8 8 8 8 8 7 7 7
12 12 12 12 12 11 11 11 11 11 11 10 10 10 10 10 10 10 9 9 9 9 8 8 8 8 8 8 8 8 8 7 7 7 7 7 7 7
12 12 12 12 11 11 11 11 11 11 10 10 10 10 10 10 10 10 9 9 9 9 8 8 8 8 8 8 8 8 7 7 7 7 7 7 7 6
12 12 12 11 11 11 11 11 11 11 10 10 10 10 10 9 9 9 9 9 8 8 8 8 8 7 7 8 7 7 7 7 7 7 7 6 6 6
11 11 11 11 11 11 10 10 10 10 10 10 10 10 9 9 9 9 9 9 8 8 8 8 7 7 7 7 7 7 7 7 7 7 6 6 6 6
11 11 11 11 11 10 10 10 10 10 10 9 9 9 9 9 9 9 8 8 8 8 7 7 7 7 7 6 6 7 7 6 6 6 6 6 6 5
11 11 10 10 10 10 10 10 10 9 9 9 9 9 9 9 8 8 8 8 8 7 7 7 7 7 6 6 6 6 6 6 6 6 6 5 5 5
10 10 10 10 10 10 9 9 9 9 9 9 9 9 9 8 8 8 8 7 7 8 7 7 7 6 6 6 6 6 6 6 6 6 5 5 5 5
10 10 10 10 10 10 9 9 9 9 9 9 8 8 8 8 8 8 7 7 7 7 7 7 6 6 6 6 6 6 6 6 6 5 5 5 5 5
9 9 9 9 9 9 9 9 9 8 8 8 8 8 8 8 8 7 7 7 7 7 7 6 6 6 6 6 6 6 6 6 5 5 5 5 5 5
9 9 9 9 9 9 9 8 8 8 8 8 8 8 8 8 7 7 7 7 7 7 6 6 6 6 5 5 6 5 5 5 5 5 4 4 4 4
8 9 9 9 9 8 8 8 8 8 8 8 8 8 7 7 7 7 7 7 7 6 6 6 6 6 5 5 5 5 5 5 5 4 4 4 4 4
8 8 8 8 8 8 8 8 8 8 8 7 7 7 7 7 7 7 7 7 6 6 6 6 6 5 5 5 4 5 5 4 4 4 4 4 3 3
8 8 8 8 8 8 8 8 8 8 7 7 7 7 7 7 7 7 7 6 6 6 6 6 6 5 5 4 4 4 4 4 4 4 3 3 3 3
8 8 8 8 8 8 8 8 7 7 7 7 7 7 7 7 7 6 6 6 6 6 6 5 5 5 5 4 4 4 4 4 3 3 3 3 3 2
Wind_Speed
2 2 2 2 2 2 3 4 4 2 1 1 1 1 2 3 4 5 6 7 7 8 8 9 9 9 9 10 10 10 10 9 9 9 9 9 9 9
2 2 2 1 2 2 3 2 3 3 2 1 1 0 1 3 4 5 5 5 6 6 7 7 8 8 8 9 9 9 9 9 9 8 8 8 8 8
2 2 2 2 2 2 2 2 2 2 2 1 0 1 2 2 3 4 5 5 6 6 7 6 6 6 6 7 7 7 8 8 7 7 7 7 7 7
3 2 2 2 2 2 2 2 2 2 3 3 1 1 1 1 2 3 3 4 5 5 6 5 5 6 6 6 6 6 7 7 7 6 6 6 6 6
3 3 3 3 3 2 3 2 2 2 2 3 2 1 1 1 2 3 3 4 3 4 5 4 4 5 5 5 5 5 5 5 5 5 5 5 5 5
3 3 3 4 4 4 3 3 3 3 3 3 2 1 1 1 2 2 2 2 2 3 3 3 3 3 3 3 3 3 3 3 3 3 3 3 3 3
2 2 3 4 5 5 4 4 5 4 4 3 2 1 1 2 2 2 1 1 1 1 2 2 2 2 1 1 0 1 1 1 1 1 1 2 2 2
2 2 2 2 4 5 6 6 7 6 5 4 3 3 3 3 2 3 2 2 1 1 1 1 1 1 2 1 1 1 1 1 0 0 0 1 1 1
3 2 2 2 3 3 4 5 5 6 7 6 5 5 5 5 5 4 3 3 2 2 2 0 1 1 3 3 3 3 3 3 2 2 1 1 2 2
3 4 3 2 3 4 4 3 2 2 4 4 5 5 4 6 7 6 5 3 1 0 2 1 1 1 2 3 3 3 4 4 4 3 3 3 3 2
2 3 4 3 5 6 5 4 2 1 2 4 4 4 4 6 7 5 4 3 1 2 2 2 2 1 1 2 3 3 4 4 5 5 4 4 3 3
1 2 4 5 6 7 5 5 5 3 2 2 2 2 3 5 6 5 5 4 2 2 3 3 2 1 1 2 2 3 3 4 6 6 5 5 4 3
2 2 3 6 6 7 6 5 6 5 4 3 2 2 2 2 3 4 5 4 4 3 4 4 2 2 2 2 2 2 3 3 4 5 6 6 5 4
3 3 3 6 6 6 5 5 6 5 3 3 2 2 2 2 2 3 4 4 4 4 5 7 3 3 3 2 3 2 3 3 3 4 4 5 5 6
3 4 4 5 5 4 5 6 5 3 4 3 4 4 3 3 2 2 2 2 1 2 3 6 4 3 3 3 3 2 2 3 3 3 4 4 4 4
2 2 3 3 3 3 3 3 3 4 4 4 4 3 2 2 2 2 2 2 1 2 2 4 6 5 4 3 3 3 3 3 2 3 3 4 5 6
2 1 1 1 2 2 2 2 2 3 4 3 3 3 3 3 3 2 2 2 3 3 2 2 3 4 4 3 3 5 4 4 3 3 2 3 5 6
3 2 3 4 4 4 4 3 3 4 5 4 4 5 4 5 4 3 3 4 4 4 4 2 1 0 1 3 6 6 4 4 3 3 3 3 5 6
3 4 5 5 5 5 5 5 5 5 4 5 5 5 5 5 4 4 5 4 5 5 4 3 3 3 4 5 4 7 5 4 3 3 4 4 6 6
4 5 6 5 5 5 5 5 5 4 4 5 5 5 5 5 5 5 6 6 6 5 4 4 5 6 7 6 4 4 8 6 4 4 4 3 4 6
6 6 6 5 5 6 6 6 6 6 6 5 5 6 6 6 6 6 6 7 6 5 6 7 7 7 3 1 2 4 4 8 8 4 3 3 3 3
6 6 6 6 5 6 6 6 6 6 6 6 6 6 6 6 7 7 6 6 7 7 7 5 2 3 3 5 6 6 5 3 5 8 8 7 4 4
6 6 6 6 6 5 5 6 7 7 7 7 7 7 7 7 7 6 6 6 6 6 5 4 3 3 4 5 6 5 5 4 2 3 4 8 10 11
Wind_Direction
183 176 175 189 177 174 163 160 157 173 236 262 305 351 51 76 79 82 81 77 75 74 76 75 73 69 66 68 68 67 68 67 67 67 66 64 63 62
182 169 179 192 172 161 160 159 157 163 186 215 226 299 79 95 83 83 86 79 79 77 76 76 77 75 73 71 71 70 71 69 67 68 67 67 65 62
190 181 198 177 163 157 148 143 143 141 160 199 58 49 78 79 72 80 84 87 87 81 76 74 78 80 84 79 75 73 72 69 66 66 64 64 63 61
200 183 199 170 154 153 152 152 152 148 155 164 126 77 81 112 90 77 75 81 88 80 75 74 80 85 88 85 80 75 71 67 66 64 61 58 55 56
197 190 194 163 165 162 156 157 153 135 128 148 147 109 84 89 78 65 58 47 66 73 75 75 84 86 88 88 85 76 70 67 64 60 54 50 48 43
197 191 186 177 180 173 168 167 149 131 125 132 136 125 111 93 106 100 63 39 34 56 66 63 70 78 83 86 87 81 74 66 57 52 51 46 41 34
179 186 186 185 184 175 170 169 158 149 143 144 150 134 142 145 176 166 144 84 27 36 49 27 40 47 36 36 72 91 89 73 62 50 47 40 34 17
177 194 189 187 192 182 174 167 163 165 170 167 174 183 200 186 161 161 150 130 265 295 111 347 27 303 286 260 248 254 259 257 243 263 342 324 317 320
185 186 194 193 176 170 167 165 171 172 170 170 177 200 197 193 171 164 167 165 201 208 134 258 333 289 277 267 259 253 254 253 255 253 271 293 282 281
198 191 184 193 177 164 153 145 160 182 182 176 192 204 196 182 179 178 171 148 100 82 149 199 253 272 298 284 267 251 243 247 259 260 262 272 276 273
216 197 185 190 182 162 154 158 169 220 193 177 177 176 168 166 159 136 139 141 207 243 190 186 214 259 285 282 281 261 243 249 257 253 253 259 262 269
219 213 196 193 183 171 174 174 185 213 176 141 131 128 134 151 163 167 172 171 177 224 203 182 193 183 283 283 298 279 254 260 258 255 255 258 253 253
210 227 225 200 193 188 186 190 197 184 169 160 151 136 118 140 172 181 180 178 186 217 196 174 178 182 202 273 298 279 251 263 261 260 259 258 251 239
213 222 220 202 199 193 193 192 181 162 151 150 158 185 197 210 210 198 198 201 207 212 190 176 179 184 181 227 269 285 277 266 253 259 262 264 262 259
217 209 207 199 193 196 196 189 176 168 168 179 201 216 218 212 184 169 178 184 215 253 201 192 184 179 185 208 231 251 274 275 252 253 259 255 258 260
216 200 188 177 179 186 190 196 194 193 192 203 210 213 192 182 199 198 203 201 217 270 256 220 206 188 205 221 224 247 241 247 259 254 256 266 267 256
179 166 169 168 189 207 208 207 204 199 210 212 207 204 201 204 216 202 192 187 205 231 247 255 230 219 219 210 233 244 245 252 255 253 246 268 268 264
172 205 212 211 213 214 215 220 218 217 217 212 212 211 212 212 214 207 199 203 220 232 230 217 184 199 298 270 229 233 243 252 255 242 233 255 276 274
202 222 223 221 221 217 216 219 226 227 219 215 216 215 215 215 212 213 212 218 228 233 229 205 192 193 231 261 261 219 228 247 244 246 243 242 262 275
222 228 228 226 222 221 221 224 228 224 220 224 224 220 215 216 216 218 218 220 226 230 230 217 211 212 224 241 253 257 227 223 229 247 261 257 267 283
228 233 232 230 227 223 223 223 222 224 223 222 226 223 217 216 221 222 223 223 223 226 231 235 233 219 215 201 255 268 261 234 229 234 238 248 273 286
231 233 234 232 230 228 225 222 224 225 223 224 226 225 221 219 223 222 221 220 223 228 237 241 207 185 201 224 244 258 273 277 251 248 242 231 225 244
235 234 232 230 230 230 228 225 225 228 226 224 225 225 223 223 224 222 221 220 224 228 230 230 214 212 225 226 238 251 259 267 269 268 271 261 252 257
Height
1548 1549 1549 1549 1549 1549 1549 1549 1550 1549 1549 1549 1550 1549 1549 1549 1548 1548 1548 1548 1547 1547 1547 1546 1546 1546 1546 1545 1545 1545 1545 1545 1545 1545 1544 1544 1544 1543
1546 1547 1547 1547 1547 1547 1547 1548 1548 1548 1547 1548 1548 1548 1548 1548 1548 1548 1548 1548 1547 1547 1547 1547 1546 1546 1546 1545 1545 1545 1545 1545 1545 1545 1544 1544 1544 1543
1544 1544 1544 1545 1545 1545 1545 1546 1546 1546 1546 1546 1546 1547 1547 1547 1547 1547 1547 1547 1547 1547 1547 1546 1546 1546 1546 1546 1545 1545 1545 1545 1545 1544 1544 1544 1544 1543
1542 1542 1542 1543 1543 1543 1544 1544 1544 1545 1545 1544 1545 1545 1546 1546 1546 1546 1546 1546 1546 1546 1546 1546 1546 1546 1545 1545 1545 1545 1545 1544 1544 1544 1543 1543 1543 1542
1539 1540 1540 1540 1541 1541 1541 1542 1542 1543 1543 1543 1543 1543 1544 1544 1544 1545 1545 1545 1545 1545 1545 1545 1545 1545 1545 1545 1544 1544 1544 1543 1543 1543 1543 1542 1542 1542
1537 1537 1538 1538 1538 1539 1539 1540 1540 1541 1541 1541 1541 1542 1542 1543 1543 1544 1544 1544 1544 1544 1544 1544 1544 1544 1544 1544 1543 1543 1543 1542 1542 1542 1541 1541 1541 1540
1535 1535 1535 1536 1536 1537 1537 1538 1538 1538 1539 1539 1539 1539 1540 1541 1541 1542 1542 1542 1542 1543 1543 1543 1542 1542 1542 1542 1542 1542 1541 1541 1540 1540 1540 1539 1539 1538
1532 1533 1533 1533 1534 1535 1535 1536 1536 1536 1536 1537 1537 1537 1538 1539 1540 1540 1540 1540 1540 1542 1541 1541 1541 1541 1541 1541 1540 1540 1539 1539 1538 1538 1538 1537 1537 1536
1530 1530 1531 1531 1532 1532 1533 1533 1533 1534 1535 1535 1535 1535 1536 1537 1538 1538 1538 1538 1539 1539 1539 1538 1539 1539 1539 1538 1538 1538 1538 1537 1536 1536 1536 1535 1535 1534
1527 1528 1528 1528 1529 1530 1530 1530 1531 1532 1532 1533 1534 1534 1535 1535 1535 1536 1536 1536 1537 1537 1537 1536 1536 1536 1536 1536 1536 1536 1535 1535 1534 1534 1533 1533 1533 1532
1524 1525 1525 1526 1526 1527 1528 1528 1528 1529 1530 1531 1531 1532 1532 1533 1533 1534 1533 1534 1533 1534 1534 1534 1534 1533 1534 1533 1533 1533 1533 1532 1532 1531 1531 1531 1530 1529
1521 1522 1522 1523 1524 1524 1525 1525 1525 1526 1527 1528 1529 1529 1530 1530 1530 1531 1531 1531 1531 1531 1531 1531 1531 1531 1531 1530 1530 1530 1530 1529 1529 1528 1528 1528 1527 1526
1518 1519 1519 1520 1521 1521 1522 1522 1523 1524 1524 1525 1526 1526 1527 1527 1527 1528 1528 1528 1528 1528 1529 1529 1528 1528 1528 1527 1527 1527 1526 1526 1526 1525 1525 1524 1524 1523
1515 1516 1516 1517 1518 1518 1519 1519 1520 1520 1521 1521 1522 1522 1523 1524 1524 1524 1525 1525 1525 1526 1526 1526 1525 1525 1525 1524 1524 1523 1523 1523 1522 1521 1521 1520 1520 1519
1513 1513 1513 1514 1514 1515 1515 1516 1517 1517 1517 1518 1518 1518 1519 1520 1520 1521 1521 1521 1521 1521 1522 1522 1522 1522 1522 1521 1520 1520 1519 1519 1518 1518 1517 1516 1515 1514
1509 1510 1510 1511 1511 1511 1512 1512 1513 1513 1513 1514 1514 1515 1515 1516 1516 1516 1516 1516 1516 1516 1517 1518 1518 1518 1517 1517 1516 1515 1515 1515 1514 1514 1513 1512 1511 1510
1506 1506 1506 1506 1506 1507 1507 1508 1508 1509 1509 1509 1510 1510 1510 1511 1511 1511 1511 1511 1511 1511 1512 1513 1513 1513 1513 1512 1511 1511 1511 1510 1510 1509 1508 1507 1506 1505
1502 1501 1502 1502 1502 1502 1503 1503 1504 1504 1504 1504 1505 1505 1505 1505 1506 1506 1506 1506 1506 1506 1507 1507 1508 1508 1508 1506 1507 1506 1505 1505 1505 1504 1503 1501 1500 1500
1497 1497 1497 1497 1497 1498 1498 1498 1499 1499 1499 1499 1500 1500 1500 1500 1500 1500 1501 1501 1501 1501 1502 1502 1502 1502 1501 1500 1501 1501 1500 1500 1499 1498 1498 1496 1495 1495
1492 1492 1492 1492 1493 1493 1493 1493 1494 1494 1494 1494 1494 1494 1494 1494 1494 1494 1495 1495 1495 1496 1496 1496 1496 1496 1496 1496 1495 1494 1495 1494 1493 1493 1492 1491 1490 1490
1487 1487 1487 1487 1488 1488 1488 1488 1488 1488 1488 1488 1488 1488 1488 1488 1488 1489 1489 1489 1489 1489 1489 1490 1491 1492 1491 1491 1489 1488 1489 1489 1488 1487 1486 1485 1484 1483
1482 1482 1482 1482 1482 1482 1482 1482 1483 1483 1482 1482 1482 1482 1482 1482 1483 1483 1483 1483 1483 1483 1484 1484 1485 1485 1485 1484 1483 1482 1482 1483 1482 1482 1481 1480 1479 1477
1476 1476 1476 1476 1477 1477 1477 1477 1476 1476 1476 1476 1476 1476 1476 1476 1476 1477 1477 1477 1477 1477 1478 1478 1478 1479 1478 1478 1478 1477 1477 1476 1476 1475 1475 1475 1474 1473